User: anonymous   Login
Location: Unspecified
(0.0000°N, 0.0000°E)
Time: 14:22:23
(UTC+00:00)
Language:

CANX 3A (UNIBRITE) - Orbit

View from above orbital plane
View from above orbital plane
View from above satellite
View from above satellite

Ground track
Ground track

The orbit data is extracted from the following two-line orbital elements,

1 39092U 13009G   15213.55305535  .00000024  00000-0  24243-4 0  9994
2 39092 098.6015 051.7426 0009579 165.9725 194.1728 14.34774302127157
Epoch (UTC): 01 August 2015 13:16:23
Eccentricity: 0.0009579
inclination: 98.6015°
perigee height: 769 km
apogee height: 782 km
right ascension of ascending node: 51.7426°
argument of perigee: 165.9725°
revolutions per day: 14.34774302
mean anomaly at epoch: 194.1728°
orbit number at epoch: 12715

The dashed part of the orbit path shows where the satellite is in the earth's shadow,  

DLR